| time (UTC) | temp F | wind direction | speed knots | gust knots | rain 1hr in | rain 24hr in | rain mn in | humidity % | barometer mb |
| 20260831171515 | 80 | 307 | 3.5 | 8.7 | 0.00 | 0.00 | 0.00 | 73 | 1009.0 |
| 20260831170013 | 80 | 49 | 2.6 | 8.7 | 0.00 | 0.00 | 0.00 | 76 | 1009.1 |
| 20260831164510 | 79 | 319 | 2.6 | 5.2 | 0.00 | 0.00 | 0.00 | 78 | 1009.0 |
| 20260831163004 | 78 | 250 | 4.3 | 9.6 | 0.00 | 0.00 | 0.00 | 79 | 1008.8 |
| 20260831161627 | 77 | 304 | 3.5 | 7.0 | 0.00 | 0.00 | 0.00 | 81 | 1008.7 |
| 20260831160023 | 76 | 309 | 4.3 | 9.6 | 0.00 | 0.00 | 0.00 | 84 | 1008.7 |
| 20260831154508 | 75 | 301 | 2.6 | 9.6 | 0.00 | 0.00 | 0.00 | 86 | 1008.7 |
| 20260831153014 | 74 | 337 | 1.7 | 6.1 | 0.00 | 0.00 | 0.00 | 89 | 1008.6 |
| 20260831151626 | 74 | 290 | 1.7 | 7.0 | 0.00 | 0.00 | 0.00 | 91 | 1008.3 |
| 20260831150004 | 72 | 313 | 5.2 | 10.4 | 0.00 | 0.00 | 0.00 | 92 | 1008.0 |
| 20260831144521 | 72 | 306 | 5.2 | 9.6 | 0.00 | 0.00 | 0.00 | 93 | 1007.7 |
| 20260831143016 | 71 | 291 | 4.3 | 8.7 | 0.00 | 0.00 | 0.00 | 94 | 1007.7 |
| 20260831141507 | 71 | 321 | 1.7 | 3.5 | 0.00 | 0.00 | 0.00 | 94 | 1007.5 |
| 20260831140125 | 71 | 244 | 0.9 | 4.3 | 0.00 | 0.00 | 0.00 | 94 | 1007.5 |
| 20260831134516 | 70 | 298 | 1.7 | 3.5 | 0.00 | 0.00 | 0.00 | 94 | 1007.0 |
| 20260831133012 | 70 | 201 | 0.0 | 0.9 | 0.00 | 0.00 | 0.00 | 94 | 1006.9 |
| 20260831131517 | 69 | 201 | 0.0 | 0.9 | 0.00 | 0.00 | 0.00 | 94 | 1007.0 |
| 20260831130003 | 69 | 201 | 0.9 | 1.7 | 0.00 | 0.00 | 0.00 | 94 | 1007.0 |
| 20260831124509 | 68 | 201 | 0.0 | 0.0 | 0.00 | 0.00 | 0.00 | 94 | 1006.7 |
| 20260831123011 | 68 | 201 | 0.0 | 0.0 | 0.00 | 0.00 | 0.00 | 94 | 1006.3 |
| 20260831121510 | 66 | 201 | 0.0 | 0.9 | 0.00 | 0.00 | 0.00 | 94 | 1006.1 |
| 20260831120021 | 66 | 201 | 0.0 | 1.7 | 0.00 | 0.00 | 0.00 | 94 | 1005.8 |
| 20260831114514 | 66 | 201 | 0.0 | 0.0 | 0.00 | 0.00 | 0.00 | 93 | 1005.7 |
| 20260831113013 | 66 | 201 | 0.0 | 0.9 | 0.00 | 0.00 | 0.00 | 93 | 1005.7 |
| 20260831111629 | 67 | 201 | 0.0 | 2.6 | 0.00 | 0.00 | 0.00 | 93 | 1005.7 |
| 20260831110008 | 67 | 201 | 1.7 | 3.5 | 0.00 | 0.00 | 0.00 | 93 | 1005.5 |
| 20260831104505 | 67 | 201 | 1.7 | 3.5 | 0.00 | 0.00 | 0.00 | 93 | 1005.5 |
| 20260831103128 | 67 | 134 | 0.9 | 2.6 | 0.00 | 0.00 | 0.00 | 93 | 1005.4 |
| 20260831101509 | 67 | 134 | 0.0 | 1.7 | 0.00 | 0.00 | 0.00 | 92 | 1005.2 |
| 20260831100024 | 68 | 134 | 0.9 | 2.6 | 0.00 | 0.00 | 0.00 | 92 | 1005.1 |
| 20260831094523 | 68 | 134 | 0.9 | 2.6 | 0.00 | 0.00 | 0.00 | 92 | 1005.0 |
| 20260831093015 | 68 | 153 | 0.9 | 4.3 | 0.00 | 0.00 | 0.00 | 92 | 1005.2 |
| 20260831091505 | 68 | 198 | 0.9 | 3.5 | 0.00 | 0.00 | 0.00 | 92 | 1005.3 |
| 20260831090005 | 68 | 157 | 0.9 | 2.6 | 0.00 | 0.00 | 0.00 | 91 | 1005.2 |
| 20260831084507 | 69 | 164 | 0.0 | 4.3 | 0.00 | 0.00 | 0.00 | 91 | 1005.0 |
| 20260831083124 | 69 | 190 | 1.7 | 4.3 | 0.00 | 0.00 | 0.00 | 91 | 1004.9 |
| 20260831081517 | 69 | 132 | 1.7 | 3.5 | 0.00 | 0.00 | 0.00 | 90 | 1004.9 |
| 20260831080129 | 70 | 178 | 0.9 | 4.3 | 0.00 | 0.00 | 0.00 | 90 | 1004.9 |
| 20260831074513 | 70 | 166 | 0.9 | 5.2 | 0.00 | 0.00 | 0.00 | 89 | 1005.0 |
| 20260831073124 | 70 | 191 | 0.9 | 6.1 | 0.00 | 0.00 | 0.00 | 89 | 1005.0 |
| 20260831071516 | 70 | 111 | 2.6 | 8.7 | 0.00 | 0.00 | 0.00 | 89 | 1004.9 |
| 20260831070019 | 71 | 150 | 1.7 | 7.8 | 0.00 | 0.00 | 0.00 | 89 | 1005.1 |
| 20260831064511 | 71 | 116 | 3.5 | 7.8 | 0.00 | 0.00 | 0.00 | 88 | 1005.5 |
| 20260831063005 | 71 | 126 | 2.6 | 7.0 | 0.00 | 0.00 | 0.00 | 87 | 1005.6 |
| 20260831061515 | 72 | 141 | 2.6 | 7.8 | 0.00 | 0.00 | 0.00 | 87 | 1005.8 |
| 20260831060017 | 72 | 169 | 2.6 | 7.8 | 0.00 | 0.00 | 0.00 | 87 | 1005.9 |
| 20260831054519 | 72 | 180 | 3.5 | 7.8 | 0.00 | 0.00 | 0.00 | 87 | 1005.8 |
| 20260831053013 | 72 | 108 | 2.6 | 7.8 | 0.00 | 0.00 | 0.00 | 86 | 1006.0 |
| 20260831051518 | 72 | 153 | 2.6 | 7.8 | 0.00 | 0.00 | 0.00 | 87 | 1006.2 |
| 20260831050002 | 72 | 128 | 4.3 | 7.8 | 0.00 | 0.00 | 0.00 | 87 | 1006.4 |
| 20260831044512 | 72 | 131 | 1.7 | 7.0 | 0.00 | 0.00 | 0.00 | 87 | 1006.6 |
| 20260831043121 | 72 | 118 | 1.7 | 5.2 | 0.00 | 0.00 | 0.00 | 88 | 1006.9 |
| 20260831040128 | 71 | 118 | 1.7 | 3.5 | 0.00 | 0.00 | 0.00 | 90 | 1006.9 |
| 20260831034504 | 71 | 102 | 0.9 | 3.5 | 0.00 | 0.00 | 0.00 | 90 | 1006.8 |
| 20260831033126 | 72 | 99 | 0.9 | 2.6 | 0.00 | 0.00 | 0.00 | 89 | 1006.8 |
| 20260831031507 | 72 | 100 | 0.9 | 3.5 | 0.00 | 0.00 | 0.00 | 89 | 1006.8 |
| 20260831030009 | 72 | 99 | 1.7 | 3.5 | 0.00 | 0.00 | 0.00 | 88 | 1006.7 |
| 20260831024622 | 73 | 90 | 0.9 | 3.5 | 0.00 | 0.00 | 0.00 | 87 | 1006.6 |
| 20260831023007 | 73 | 58 | 1.7 | 7.0 | 0.00 | 0.00 | 0.00 | 87 | 1006.7 |
| 20260831021630 | 73 | 93 | 2.6 | 8.7 | 0.00 | 0.00 | 0.00 | 87 | 1006.5 |
| 20260831020006 | 74 | 98 | 4.3 | 8.7 | 0.00 | 0.00 | 0.00 | 86 | 1006.4 |
| 20260831014515 | 74 | 92 | 5.2 | 7.8 | 0.00 | 0.00 | 0.00 | 85 | 1006.4 |
| 20260831013010 | 74 | 88 | 3.5 | 7.8 | 0.00 | 0.00 | 0.00 | 85 | 1006.3 |
| 20260831011510 | 75 | 63 | 2.6 | 8.7 | 0.00 | 0.00 | 0.00 | 85 | 1006.3 |
| 20260831010007 | 75 | 81 | 3.5 | 11.3 | 0.00 | 0.00 | 0.00 | 84 | 1006.2 |
| 20260831004628 | 75 | 71 | 4.3 | 8.7 | 0.00 | 0.00 | 0.00 | 83 | 1006.4 |
| 20260831003124 | 76 | 46 | 2.6 | 8.7 | 0.00 | 0.00 | 0.00 | 82 | 1006.5 |
| 20260831001621 | 76 | 109 | 2.6 | 8.7 | 0.00 | 0.00 | 0.00 | 82 | 1006.6 |
| 20260831000018 | 76 | 92 | 4.3 | 10.4 | 0.00 | 0.00 | 0.00 | 81 | 1006.6 |
| 20260830234507 | 77 | 87 | 5.2 | 9.6 | 0.00 | 0.00 | 0.00 | 79 | 1006.6 |
| 20260830231504 | 78 | 92 | 6.1 | 13.0 | 0.00 | 0.00 | 0.00 | 78 | 1006.6 |
| 20260830230021 | 79 | 110 | 4.3 | 11.3 | 0.00 | 0.00 | 0.00 | 77 | 1006.6 |
| 20260830224515 | 78 | 121 | 5.2 | 11.3 | 0.00 | 0.00 | 0.00 | 79 | 1006.7 |
| 20260830223013 | 78 | 69 | 4.3 | 12.2 | 0.00 | 0.00 | 0.00 | 79 | 1006.7 |
| 20260830221505 | 78 | 110 | 7.8 | 11.3 | 0.00 | 0.00 | 0.00 | 79 | 1007.0 |
| 20260830220015 | 77 | 88 | 5.2 | 11.3 | 0.00 | 0.00 | 0.00 | 79 | 1007.0 |
| 20260830214624 | 77 | 111 | 5.2 | 11.3 | 0.00 | 0.00 | 0.00 | 78 | 1007.2 |
| 20260830213020 | 77 | 145 | 9.6 | 13.9 | 0.00 | 0.00 | 0.00 | 78 | 1007.1 |
| 20260830211629 | 77 | 117 | 7.0 | 14.8 | 0.00 | 0.00 | 0.00 | 78 | 1007.1 |
| 20260830210013 | 78 | 88 | 7.0 | 13.9 | 0.00 | 0.00 | 0.00 | 76 | 1007.1 |
| 20260830204636 | 78 | 98 | 5.2 | 13.0 | 0.00 | 0.00 | 0.00 | 78 | 1006.9 |
| 20260830203013 | 79 | 81 | 4.3 | 9.6 | 0.00 | 0.00 | 0.00 | 79 | 1007.0 |
| 20260830201643 | 77 | 94 | 9.6 | 14.8 | 0.00 | 0.00 | 0.00 | 78 | 1007.2 |
| 20260830200002 | 78 | 92 | 7.0 | 13.0 | 0.00 | 0.00 | 0.00 | 78 | 1007.3 |
| 20260830194513 | 77 | 87 | 6.1 | 13.0 | 0.00 | 0.00 | 0.00 | 77 | 1007.5 |
| 20260830193011 | 77 | 107 | 5.2 | 12.2 | 0.00 | 0.00 | 0.00 | 79 | 1008.1 |
| 20260830191507 | 76 | 83 | 6.1 | 13.0 | 0.00 | 0.00 | 0.00 | 80 | 1008.4 |
| 20260830190015 | 75 | 114 | 4.3 | 11.3 | 0.00 | 0.00 | 0.00 | 81 | 1008.4 |
| 20260830184521 | 74 | 107 | 4.3 | 11.3 | 0.00 | 0.00 | 0.00 | 83 | 1008.5 |
| 20260830183128 | 74 | 101 | 3.5 | 10.4 | 0.00 | 0.00 | 0.00 | 82 | 1008.6 |
| 20260830181513 | 75 | 106 | 6.1 | 13.9 | 0.00 | 0.00 | 0.00 | 80 | 1008.5 |
| 20260830180126 | 75 | 106 | 5.2 | 13.0 | 0.00 | 0.00 | 0.00 | 81 | 1008.3 |
| 20260830174627 | 75 | 83 | 8.7 | 14.8 | 0.00 | 0.00 | 0.00 | 80 | 1008.6 |
| 20260830173010 | 74 | 94 | 3.5 | 12.2 | 0.00 | 0.00 | 0.00 | 82 | 1008.4 |